Туобуя

Россия / Республика Саха (Якутия)     61°57′52″N   122°05′06″E
темп.,
°C
ветер,
м/с
пор.,
м/с
влажн.,
%
обл.,
%
осадки,
мм/ч
давл.,
гПа
погр.,
м
28 февраля, вс
вс2800:00−27сз3896100 0.2 1022505
03:00−28зсз4995100 0.4 1023577
06:00−28зсз41095100 0.2 1024626
09:00−28зсз51194100 0.4 1026623
12:00−26зсз51191100 0.1 1027672
15:00−26з51090100 0.3 1028692
18:00−27з51090100 0.0 1030648
21:00−27з41192100 0.0 1030702
1 марта, пн
пн100:00−28з41095100 0.0 1031525
03:00−30з3896100 0.0 1031268
06:00−32зюз3796100 0.0 1032231
09:00−33зюз3895100 0.0 1032276
12:00−30з3792100 0.0 1031325
15:00−28з3691100 0.0 1029461
18:00−29зюз2497100 0.0 102982
21:00−31зюз2298100 0.0 102926
2 марта, вт
вт200:00−33зюз229988 0.0 102819
03:00−34зюз119985 0.0 102819
06:00−35юз119979 0.0 102819
09:00−34ю119873 0.0 102719
12:00−27вюв118664 0.0 1026306
15:00−26в128080 0.0 1024655
18:00−29всв2396100 0.0 102443
21:00−33всв239786 0.0 102524
3 марта, ср
ср300:00−34всв229967 0.0 102521
03:00−36всв239960 0.0 102527
06:00−37св239929 0.0 102530
09:00−36св229821 0.0 102556
12:00−30ссв238761 0.0 1024287
15:00−28ссз238877 0.0 1023439
18:00−32сз239679 0.0 102429
21:00−36зсз239879 0.0 102558
4 марта, чт
чт400:00−33з3796100 0.1 1024318
03:00−33з4995100 0.1 1023465
06:00−33з51094100 0.1 1023523
09:00−33з51094100 0.3 1022555
12:00−31з5992100 0.2 1022793
15:00−29зсз5889100 0.4 10221046
18:00−29сз4893100 0.2 10241035
21:00−30сз3994100 0.3 1025798